EDT,Max TemperatureF,Mean TemperatureF,Min TemperatureF,Max Dew PointF,MeanDew PointF,Min DewpointF,Max Humidity, Mean Humidity, Min Humidity, Max Sea Level PressureIn, Mean Sea Level PressureIn, Min Sea Level PressureIn, Max VisibilityMiles, Mean VisibilityMiles, Min VisibilityMiles, Max Wind SpeedMPH, Mean Wind SpeedMPH, Max Gust SpeedMPH,PrecipitationIn, CloudCover, Events, WindDirDegrees
2013-3-1,35,34,32,32,31,30,100,92,87,30.05,30.01,29.98,10,7,2,12,9,,0.00,8,Rain-Snow,327
2013-3-2,30,28,26,25,22,21,86,78,69,30.11,30.10,30.08,10,10,10,14,12,18,0.00,8,Snow,335
2013-3-3,33,30,26,25,21,18,93,70,52,30.17,30.10,30.07,10,10,10,14,8,,0.00,4,,331
2013-3-4,39,30,21,27,22,19,100,61,48,30.14,30.05,29.97,10,10,10,9,6,,0.00,5,,123
2013-3-5,37,34,30,37,32,27,100,93,65,29.86,29.74,29.66,10,3,1,21,10,30,0.00,8,Rain-Snow,156
2013-3-6,32,30,28,30,28,25,100,92,86,30.25,30.15,29.98,10,10,7,20,16,29,0.00,8,,322
2013-3-7,35,32,28,30,29,27,100,84,70,30.40,30.37,30.25,10,9,7,9,5,,0.00,8,,333
2013-3-8,44,35,26,30,27,25,100,73,49,30.48,30.43,30.37,10,10,10,9,5,,0.00,0,,70
2013-3-9,55,44,32,32,30,28,93,50,36,30.29,30.14,30.03,10,10,10,14,8,,0.00,3,,148
2013-3-10,66,58,50,36,33,30,54,38,28,29.98,29.89,29.78,10,10,10,23,15,34,0.00,2,,174
2013-3-11,53,45,35,50,42,32,100,85,66,29.87,29.72,29.65,10,9,3,24,16,32,0.00,8,Rain,219
2013-3-12,44,38,32,32,27,23,100,67,46,30.07,30.00,29.95,10,10,5,21,12,30,0.00,6,Snow,265
2013-3-13,30,28,26,25,22,19,86,76,69,30.34,30.22,30.11,10,9,3,21,12,23,0.00,7,Snow,289
2013-3-14,44,32,21,21,18,12,93,57,31,30.36,30.29,30.21,10,10,10,14,7,,0.00,3,,230
2013-3-15,53,40,26,39,33,27,100,79,51,30.06,29.96,29.80,10,7,1,7,3,,0.00,3,,193
2013-3-16,53,47,39,48,42,36,100,85,72,29.96,29.79,29.63,10,8,5,21,10,,0.00,6,Rain,308
2013-3-17,37,34,32,30,29,27,87,79,70,30.14,30.10,30.03,10,10,10,16,13,,0.00,8,,65
2013-3-18,46,40,35,45,39,36,100,97,87,29.75,29.68,29.63,10,8,2,21,11,,0.00,8,Rain,189
2013-3-19,42,34,26,21,19,14,74,53,33,30.12,30.05,29.98,10,10,10,23,18,37,0.00,0,,267
2013-3-20,33,30,26,21,14,9,80,53,41,30.09,30.06,30.02,10,10,10,20,12,30,0.00,3,,291
2013-3-21,32,26,19,18,11,7,74,50,38,30.06,30.03,30.00,10,10,10,13,7,,0.00,2,,336
2013-3-22,44,32,19,21,15,12,100,52,29,30.09,30.04,29.99,10,10,10,9,1,,0.00,0,,168
2013-3-23,50,42,33,45,25,18,87,55,32,30.07,30.01,29.92,10,10,10,14,5,,0.00,4,,54
2013-3-24,37,34,30,32,30,27,100,87,75,29.77,29.58,29.44,10,5,0,22,13,30,0.00,8,Rain-Snow,49
2013-3-25,32,30,28,30,29,27,100,95,93,29.81,29.68,29.56,5,2,0,17,13,,0.00,8,Snow,298
2013-3-26,37,32,30,32,29,27,93,87,81,30.18,30.13,30.07,10,10,10,16,10,,0.00,7,,310
2013-3-27,42,35,28,30,27,25,93,68,49,30.34,30.31,30.28,10,10,10,12,7,,0.00,5,,304
2013-3-28,48,38,28,32,28,25,93,63,40,30.39,30.33,30.29,10,10,10,6,1,,0.00,0,,325
2013-3-29,51,40,28,37,30,25,100,63,37,30.34,30.27,30.22,10,10,10,0,0,,0.00,6,,-1
2013-3-30,59,44,30,36,32,30,100,56,34,30.24,30.11,29.97,10,10,7,14,5,23,0.00,1,,163
2013-3-31,59,50,44,46,44,39,100,86,48,29.88,29.84,29.80,10,8,7,14,5,,0.00,7,,240